Location: Artiguedieu
(43.5000°N, 0.5454°E)
Time: 21:06:03
(UTC+00:00)

Vanguard 1 - Pass Details

Date: 05 August 2021
Orbit: 652 x 3831 km, 34.3° (Epoch: 19 September)

Event Time Altitude Azimuth Distance (km) Brightness Sun altitude
Rises 09:53:59 0° 235° (SW) 2,956 12.4 51.7°
Reaches altitude 10° 09:56:26 10° 222° (SW) 2,065 11.8 52.1°
Maximum altitude 10:00:13 26° 164° (SSE) 1,416 11.9 52.7°
Drops below altitude 10° 10:04:54 10° 109° (ESE) 2,610 13.0 53.4°
Sets 10:08:27 0° 97° (E) 3,945 13.6 53.9°
